Tri-Cities, TN

5:17 AM EST on November 22, 2019 (GMT -0500)
Tri-Cities Regional Tennessee / Virginia

Weather History for KTRI - October, 2019

Change the Weather History Date:

Tuesday, October 22, 2019

  Actual Average Record
Temperature  
Mean Temperature 57 °F 54 °F  
Max Temperature 69 °F 68 °F 85 °F (1947)
Min Temperature 45 °F 41 °F 24 °F (1952)
Degree Days  
Heating Degree Days 8 11  
Month to date heating degree days 98 173  
Since 1 July heating degree days 98 226  
Cooling Degree Days 0 0  
Month to date cooling degree days 67 9  
Year to date cooling degree days 1452 977  
Growing Degree Days 7 (Base 50)    
Moisture  
Dew Point 51 °F    
Average Humidity 67    
Maximum Humidity 93    
Minimum Humidity 40    
Precipitation  
Precipitation 0.18 in 0.07 in 0.60 in (1990)
Month to date precipitation 3.84 1.44  
Year to date precipitation 45.45 33.88  
Snow  
Snow 0.00 in 0.00 in - ()
Month to date snowfall 0.0 0.0  
Since 1 July snowfall 0.0 0.0  
Since 1 September snowfall 0.0 0.0  
Snow Depth 0.00 in    
Sea Level Pressure  
Sea Level Pressure 29.87 in    
Wind  
Wind Speed 7 mph (SW)    
Max Wind Speed 23 mph    
Max Gust Speed 30 mph    
Visibility 10 miles    
Events Rain    
T = Trace of Precipitation, MM = Missing Value Source: NWS Daily Summary

Daily Weather History Graph

Daily Weather History Graph

Search for Another Location

Airport or City:

Astronomy

Oct. 22, 2019 Rise Set
Actual Time 7:43 AM EDT 6:44 PM EDT
Civil Twilight 7:16 AM EDT 7:10 PM EDT
Nautical Twilight 6:46 AM EDT 7:40 PM EDT
Astronomical Twilight 6:16 AM EDT 8:10 PM EDT
Moon 1:05 AM EDT 3:40 PM EDT
Length of Visible Light 11h 54m
Length of Day
11h 01m
Last Quarter, 37% of the Moon is Illuminated
Oct 22
Last Quarter
Oct 27
New
Nov 4
First Quarter
Nov 12
Full
Nov 19
Last Quarter

Hourly Weather History & Observations

Time (EDT) Temp. Dew Point Humidity Pressure Visibility Wind Dir Wind Speed Gust Speed Precip Events Conditions
12:53 AM 68.0 °F 55.0 °F 63% 29.83 in 10.0 mi SSE 5.8 mph - N/A   Overcast
1:53 AM 68.0 °F 55.9 °F 65% 29.81 in 10.0 mi Calm Calm - N/A   Overcast
2:53 AM 66.9 °F 55.9 °F 68% 29.81 in 10.0 mi South 4.6 mph - N/A   Overcast
3:53 AM 68.0 °F 57.0 °F 68% 29.77 in 10.0 mi SE 3.5 mph - N/A   Overcast
4:53 AM 66.9 °F 57.0 °F 70% 29.75 in 10.0 mi SSE 3.5 mph - N/A   Overcast
5:53 AM 68.0 °F 57.0 °F 68% 29.75 in 10.0 mi SE 3.5 mph - N/A   Overcast
6:53 AM 66.9 °F 59.0 °F 76% 29.76 in 6.0 mi South 8.1 mph - 0.00 in Rain Light Rain
7:21 AM 64.0 °F 60.1 °F 87% 29.85 in 10.0 mi WNW 15.0 mph - 0.04 in Rain Light Rain
7:53 AM 60.1 °F 55.0 °F 83% 29.82 in 10.0 mi West 15.0 mph 24.2 mph 0.04 in   Overcast
8:33 AM 57.9 °F 54.0 °F 87% 29.91 in 10.0 mi West 9.2 mph - 0.02 in Rain Light Rain
8:53 AM 57.9 °F 54.0 °F 87% 29.87 in 10.0 mi West 6.9 mph - 0.02 in   Overcast
9:53 AM 57.0 °F 54.0 °F 89% 29.89 in 5.0 mi SW 5.8 mph - 0.02 in Rain Rain
10:53 AM 57.0 °F 55.0 °F 93% 29.89 in 10.0 mi SSW 6.9 mph - 0.07 in   Overcast
11:00 AM 57.0 °F 55.0 °F 93% 29.94 in 10.0 mi SSW 9.2 mph - N/A   Overcast
11:07 AM 57.0 °F 55.0 °F 93% 29.95 in 10.0 mi SSW 9.2 mph - 0.00 in Rain Light Rain
11:53 AM 57.9 °F 55.0 °F 90% 29.87 in 10.0 mi WSW 5.8 mph - 0.03 in   Overcast
12:11 PM 59.0 °F 54.0 °F 83% 29.93 in 10.0 mi SW 10.4 mph - N/A   Overcast
12:42 PM 60.1 °F 54.0 °F 80% 29.93 in 10.0 mi West 9.2 mph - N/A   Mostly Cloudy
12:53 PM 60.1 °F 53.1 °F 78% 29.87 in 10.0 mi WSW 8.1 mph - N/A   Mostly Cloudy
1:53 PM 64.0 °F 52.0 °F 65% 29.84 in 10.0 mi SW 15.0 mph - N/A   Scattered Clouds
2:53 PM 66.9 °F 48.0 °F 51% 29.82 in 10.0 mi SW 15.0 mph 21.9 mph N/A   Scattered Clouds
3:53 PM 64.0 °F 43.0 °F 46% 29.82 in 10.0 mi WSW 12.7 mph - N/A   Scattered Clouds
4:53 PM 66.0 °F 41.0 °F 40% 29.84 in 10.0 mi WSW 17.3 mph - N/A   Scattered Clouds
5:53 PM 64.9 °F 41.0 °F 42% 29.85 in 10.0 mi WSW 13.8 mph 21.9 mph N/A   Scattered Clouds
6:53 PM 60.1 °F 39.9 °F 47% 29.86 in 10.0 mi WSW 8.1 mph - N/A   Partly Cloudy
7:53 PM 55.0 °F 39.9 °F 57% 29.91 in 10.0 mi SW 6.9 mph - N/A   Clear
8:53 PM 52.0 °F 41.0 °F 66% 29.93 in 10.0 mi SW 5.8 mph - N/A   Clear
9:53 PM 48.9 °F 42.1 °F 77% 29.95 in 10.0 mi Calm Calm - N/A   Clear
10:53 PM 46.9 °F 41.0 °F 80% 29.97 in 10.0 mi Calm Calm - N/A   Clear
11:53 PM 46.0 °F 42.1 °F 86% 29.99 in 10.0 mi Calm Calm - N/A   Clear